Montana Department of Transportation

Main Content

Accidents and Incidents Report

Hourly Weather Roundup

ASUS45 KTFX 311819
RWRMT 
MONTANA HOURLY WEATHER ROUNDUP
NATIONAL WEATHER SERVICE GREAT FALLS MT
1219 PM MDT FRI OCT 31 2014

NOTE: "FAIR" INDICATES FEW OR NO CLOUDS BELOW 12000 FEET WITH NO
SIGNIFICANT WEATHER AND/OR OBSTRUCTIONS TO VISIBILITY.

* THESE STATIONS ARE NOT UNDER NWS QUALITY CONTROL. THEY DO NOT
   REPORT WEATHER SUCH AS PRECIPITATION OR FOG.

MTZ001.007-043-311900-
WEST OF THE DIVIDE
CITY           SKY/WX    TMP DP  RH WIND       PRES   REMARKS
KALISPELL      PTSUNNY   41  39  93 CALM      29.78F 
MISSOULA       PTCLDY    43  41  93 CALM      29.82F 
BUTTE          PTSUNNY   48  34  59 CALM      29.90F 
MULLAN PASS    PTCLDY    50  36  59 VRB3      29.82R 
* DEER LODGE   PTSUNNY   57  30  36 S11        N/A   
* ESSEX        N/A       46  38  74 SE9        N/A   
* HAMILTON APT SUNNY     50  39  66 NE1        N/A   
* LIBBY APT    PTSUNNY   43  39  86 N/A        N/A   
* LINCOLN      N/A       40  35  82 W2         N/A   
* LOOKOUT PASS N/A       44  44 100 SE4G11     N/A   
* POLSON       N/A       45  45 100 SW2        N/A   
* RONAN APT    PTSUNNY   43  41  93 N/A        N/A   
* SEELEY LAKE  N/A       45  39  80 N/A        N/A   
* THOMP F APT  PTCLDY    55  26  33 SE7G16     N/A   
* YAAK HILL    N/A       46  43  89 E1G6       N/A   
--------------------------------

MTZ008-052.055-311900-
SOUTHWEST MONTANA
CITY           SKY/WX    TMP DP  RH WIND       PRES   REMARKS
BOZEMAN        PTSUNNY   46  34  63 W3        29.90R 
DILLON         PTCLDY    55  30  39 W3        29.90F 
W YELLOWSTONE  PTSUNNY   48  32  54 NE6       30.03F 
* ENNIS APT    PTSUNNY   63  25  24 S17G24     N/A   
* THREE FORKS  CLOUDY    39  19  45 N/A        N/A   
* BOULDER HILL N/A       45  27  49 SW13       N/A   
* MONIDA PASS  N/A       53  26  35 SE17G27    N/A   
* RAYNOLDS PAS N/A       53  31  43 SE10G16    N/A   
* WHITEHALL    N/A       40  33  76 S3         N/A   
* WISE RIVER   N/A       39  35  86 E2         N/A   
--------------------------------

MTZ009.010-012-014-046-048-049-054-311900-
EAST SLOPES AND CENTRAL MONTANA
CITY           SKY/WX    TMP DP  RH WIND       PRES   REMARKS
CUT BANK       PTSUNNY   41  34  76 VRB3      29.77F 
GREAT FALLS    PTSUNNY   66  30  26 S23G29    29.75F 
HELENA         PTSUNNY   45  34  65 CALM      29.86F 
MALMSTROM AFB  PTSUNNY   50  37  61 N5        29.78F 
* CONRAD       PTSUNNY   39  37  93 N/A        N/A   
* DEARBORN     N/A       58  34  41 S9         N/A   
* EAST GLACIER N/A       55  34  45 W6         N/A   
* MONARCH      N/A       63  22  21 S9         N/A   
* SAINT MARY   N/A       49  41  74 SW2        N/A   
* SWEET GRASS  N/A       39  33  79 S26        N/A   WCI  28 
* WHITE SULPH  N/A       53  34  49 NE4G11     N/A   
--------------------------------

MTZ011-013-016-021-035-040-045-047-050-051-311900-
NORTH CENTRAL MONTANA
CITY           SKY/WX    TMP DP  RH WIND       PRES   REMARKS
HAVRE          CLOUDY    39  34  82 NE7       29.80F WCI  34 
LEWISTOWN      PTSUNNY   61  36  39 N3        29.83F 
* N BAR RANCH  SUNNY     63  28  27 SW23      29.88F 
* FORT BENTON  PTSUNNY   48  34  59 NE8       29.78F 
* MALTA APT    CLOUDY    46  34  63 E9         N/A   
* CHESTER      N/A       45  32  60 SE6G11     N/A   
* DENTON       N/A       61  35  38 S18G27     N/A   
* GEYSER       N/A       61  35  38 NE6        N/A   
* JUDITH GAP   N/A       50  30  46 S10        N/A   
* LOMA         N/A       47  35  63 E10        N/A   
--------------------------------

MTZ017.020-022.027-061-062-311900-
NORTHEAST MONTANA
CITY           SKY/WX    TMP DP  RH WIND       PRES   REMARKS
GLASGOW        PTCLDY    46  32  58 SE22G31   29.96F 
GLENDIVE       PTCLDY    45  30  56 SE21      30.08F 
JORDAN         CLOUDY    46  34  63 S16G25    29.94F 
SIDNEY         SUNNY     45  28  51 SE24G30   30.11F 
WOLF POINT     SUNNY     48  34  59 SE9G18    30.04F 
* BEAVER HILL  N/A       39  29  67 SE34G43    N/A   WCI  26 
* CIRCLE       N/A47  36  66 SE11G19    N/A   
* LINDSAY DVD  N/A       42  31  65 SE27G37    N/A   
* NAVAJO       N/A       39  29  67 SE20G27    N/A   WCI  29 
* PLENTYWOOD A N/A       39  28  65 SE22       N/A   WCI  29 
* POPLAR APT   N/A       45  32  60 N/A        N/A   
* SCOBEY APT   PTCLDY    43  28  56 SE20G32    N/A   
--------------------------------

MTZ028.042-056.058-311900-
SOUTHCENTRAL AND SOUTHEAST MONTANA
CITY           SKY/WX    TMP DP  RH WIND       PRES   REMARKS
BAKER          PTCLDY    39  30  70 SE32G44   30.09F WCI  27 
BILLINGS       PTSUNNY   46  30  54 CALM      29.91F 
LIVINGSTON     PTCLDY    45  32  60 SE5       29.90F 
MILES CITY     PTCLDY    50  32  50 SE22G33   29.99F 
* FORSYTH APT  PTSUNNY   52  32  47 SE14       N/A   
* LAUREL APT   PTCLDY    48  30  50 N/A        N/A   
* ROUNDUP APT  PTSUNNY   46  30  54 S5         N/A   
* ALZADA       N/A       43  32  65 E14        N/A   
* HYSHAM       N/A       51  32  48 SE4        N/A   
* LAME DEER    N/A       45  31  58 SE17G28    N/A   
* REED POINT   N/A       44  32  63 N/A        N/A   
* ROSCOE HILL  N/A       50  30  46 NW4        N/A   
--------------------------------

REGIONAL REPORTS...DAKOTAS
CITY           SKY/WX    TMP DP  RH WIND       PRES   REMARKS
WILLISTON      PTCLDY    39  27  62 S15G26    30.16F WCI  31 
DICKINSON      PTSUNNY   37  25  62 SE25G36   30.20F WCI  25 
BEACH          N/A       39  32  76 SE32G44   30.10F WCI  27 
CROSBY         SUNNY     36  27  70 SE21G30   30.16F WCI  25 
TIOGA          SUNNY     34  28  79 SE25G35   30.22F WCI  21 
BISMARCK       PTCLDY    36  21  54 S17G28    30.43F WCI  26 
GRAND FORKS    SUNNY     36  19  50 S9        30.54F WCI  29 
FARGO          SUNNY     36  21  54 SE9       30.55F WCI  29 
BUFFALO SD     PTCLDY    39  30  70 SE28G36   30.10F WCI  27 
RAPID CITY     PTCLDY    41  30  65 S24G37    30.25F 
--------------------------------

REGIONAL REPORTS...WYOMING/IDAHO/WASHINGTON
CITY           SKY/WX    TMP DP  RH WIND       PRES   REMARKS
GILLETTE       PTSUNNY   45  30  56 S32G40    30.05F 
SHERIDAN       CLOUDY    45  28  51 CALM      29.96F 
CODY           CLOUDY    55  30  39 SE9       29.96F 
YELLOWSTONE LA PTCLDY    50  28  43 VRB3      30.12S 
SALMON         PTCLDY    50  36  59 CALM      29.86F 
MULLAN PASS    PTCLDY    50  36  59 VRB3      29.82S 
SAND POINT     CLOUDY    48  43  83 E5        29.76F 
SPOKANE        FOG       46  46 100 S7        29.76R VSB M1/4 
--------------------------------

REGIONAL REPORTS...ALBERTA
CITY           SKY/WX    TMP DP  RH WIND       PRES   REMARKS
CALGARY        PTSUNNY   50  34  54 SW5       29.60S 
LETHBRIDGE     PTSUNNY   55  37  51 S15       29.67F 
MEDICINE HAT   CLOUDY    61  36  39 S15G28    29.69F 
EDMONTON       CLOUDY    41  34  76 W5        29.60R 
WATERTON GATE  N/A       64  30  28 S7         N/A   
CARDSTON       N/A       59  36  42 SW8        N/A   
MILK RIVER     N/A       43  36  76 S17        N/A   
--------------------------------

REGIONAL REPORTS...SASKATCHEWAN
CITY           SKY/WX    TMP DP  RH WIND       PRES   REMARKS
SWIFT CURRENT  SUNNY     45  34  65 S31G41    29.78F 
MOOSE JAW      PTSUNNY   41  32  70 SE20G29   29.98F 
REGINA         PTSUNNY   34  28  79 SE26G38   30.05F WCI  21 
VAL MARIE      N/A       43  32  65 SE21G30    N/A   
ASSINIBOIA     N/A       41  30  65 S17G29     N/A   
CORONACH       N/A       43  30  60 SE25G33    N/A   

--------------------------------